World > North America > United States > Utah

Bluebell, Utah Regional Weather

Lat: 40.36N, Lon: 110.22W
Wx Zone: UTZ011Web Search

Pass this page to a friend. Tell them to point their camera at the QR Code near the bottom of this page.

Feedback


°F Click to change Bluebell hourly weather to Imperial units.Click to change Bluebell hourly weather to Metric units. °C
Bluebell Weather Map
UTC Time: 4/10/2021, 11:31
Your Time:

Bluebell, UT Regional Weather

Expires:202104101200;;327460
ASUS45 KSLC 101110
RWRUT 

UTAH REGIONAL WEATHER ROUNDUP
NATIONAL WEATHER SERVICE SALT LAKE CITY UT
500 AM MDT SAT APR 10 2021


UTZ011>015-024>027-101200-

CENTRAL/NORTHEAST UTAH
  
CITY           SKY/WX    TMP DP  RH WIND       PRES   REMARKS
PROVO AIRPORT    N/A     38  20  48 CALM      30.03F                  
MOAB/CANYONLAN CLEAR     37   3  24 W3        29.99S                  
DELTA          CLEAR     32  19  59 E8        30.01S WCI  25          
MANTI            N/A     28  14  57 CALM      30.06F                  
PRICE          CLEAR     31   8  38 NE3       30.02F                  
RICHFIELD      CLEAR     28  12  50 CALM      30.05S                  
ROOSEVELT      CLEAR     30  12  47 SW5       30.05S WCI  25          
DUCHESNE       SUNNY     36   9  32 W12       30.03F WCI  27          
VERNAL         CLEAR     28  10  46 W3        30.03S                  

$$


SKY/WX - Weather  TMP - Temperature  DP - Dew Point  RH - Relative Humidity
WIND - Wind Direction/Speed PRES - Barometric Pressure VSB - Visibility
WCI - Wind Chill Index E13G22 Wind - East Wind 13 mph/Gusts of 22 mph